TimeEDT,TemperatureF,Dew PointF,Humidity,Sea Level PressureIn,VisibilityMPH,Wind Direction,Wind SpeedMPH,Gust SpeedMPH,PrecipitationIn,Events,Conditions,WindDirDegrees,DateUTC
12:53 AM,46.0,43.0,89,30.13,10.0,NW,3.5,-,N/A,,Clear,310,2013-04-06 04:53:00
1:53 AM,46.0,43.0,89,30.13,10.0,Calm,Calm,-,N/A,,Clear,0,2013-04-06 05:53:00
2:53 AM,44.1,42.1,93,30.13,10.0,Calm,Calm,-,N/A,,Clear,0,2013-04-06 06:53:00
3:53 AM,43.0,41.0,93,30.12,10.0,Calm,Calm,-,N/A,,Clear,0,2013-04-06 07:53:00
4:53 AM,43.0,39.9,89,30.12,10.0,Calm,Calm,-,N/A,,Clear,0,2013-04-06 08:53:00
5:53 AM,42.1,39.9,92,30.13,10.0,Calm,Calm,-,N/A,,Clear,0,2013-04-06 09:53:00
6:53 AM,42.1,39.9,92,30.14,10.0,Calm,Calm,-,N/A,,Clear,0,2013-04-06 10:53:00
7:53 AM,42.1,39.9,92,30.17,10.0,Calm,Calm,-,N/A,,Clear,0,2013-04-06 11:53:00
8:53 AM,51.1,48.0,89,30.18,10.0,Calm,Calm,-,N/A,,Clear,0,2013-04-06 12:53:00
9:53 AM,57.9,48.9,72,30.19,10.0,Calm,Calm,-,N/A,,Clear,0,2013-04-06 13:53:00
10:53 AM,64.0,48.9,58,30.19,10.0,SE,5.8,-,N/A,,Clear,130,2013-04-06 14:53:00
11:53 AM,66.9,46.0,47,30.20,10.0,ESE,10.4,-,N/A,,Clear,110,2013-04-06 15:53:00
12:53 PM,68.0,46.0,45,30.21,10.0,East,3.5,-,N/A,,Clear,100,2013-04-06 16:53:00
1:53 PM,72.0,46.0,40,30.18,10.0,East,4.6,-,N/A,,Clear,90,2013-04-06 17:53:00
2:53 PM,73.0,48.9,42,30.16,10.0,South,10.4,-,N/A,,Clear,170,2013-04-06 18:53:00
3:53 PM,71.1,51.1,49,30.15,10.0,South,11.5,-,N/A,,Clear,180,2013-04-06 19:53:00
4:53 PM,70.0,50.0,49,30.13,10.0,SSW,9.2,-,N/A,,Clear,210,2013-04-06 20:53:00
5:53 PM,69.1,48.9,49,30.13,10.0,SW,9.2,-,N/A,,Clear,220,2013-04-06 21:53:00
6:53 PM,66.9,48.9,52,30.14,10.0,SW,8.1,-,N/A,,Clear,230,2013-04-06 22:53:00
7:53 PM,62.1,51.1,67,30.14,10.0,SSW,3.5,-,N/A,,Clear,210,2013-04-06 23:53:00
8:53 PM,60.1,52.0,75,30.16,10.0,Calm,Calm,-,N/A,,Clear,0,2013-04-07 00:53:00
9:53 PM,57.9,53.1,84,30.16,10.0,Calm,Calm,-,N/A,,Clear,0,2013-04-07 01:53:00
10:53 PM,55.9,52.0,87,30.16,10.0,NNW,3.5,-,N/A,,Clear,330,2013-04-07 02:53:00
11:53 PM,54.0,51.1,90,30.15,10.0,Calm,Calm,-,N/A,,Clear,0,2013-04-07 03:53:00